{"data":{"norad_id":82448,"epoch":"2026-09-18T08:51:23.075712Z","epoch_age_seconds":198613,"freshness":"STALE","line1":"1 82448U          26261.36901708  .00004247  00000+0  28182-3 0  9997","line2":"2 82448  85.8723  49.4232 0003073  28.7666 331.3738 15.06980559479111","mean_motion":15.06980559,"eccentricity":0.0003073,"inclination_deg":85.8723,"raan_deg":49.4232,"arg_perigee_deg":28.7666,"mean_anomaly_deg":331.3738,"bstar":0.00028182,"rev_number":47911,"period_min":95.555313663472,"perigee_km":543.30518647798,"apogee_km":547.56041247674,"semimajor_km":6923.5697994774,"source":"CELESTRAK","updated_at":"2026-09-20T09:00:32.434356Z"}}